Tacoma, WA
on Monday, November 26, 2012

Monday
Previous Day Next Day
Daily Summary
 ActualAverage (KSEA)Record (KSEA)
Temperature
Mean Temperature °F 43°F  
Max Temperature 49°F 48°F 61°F (1949)
Min Temperature 28°F 38°F 25°F (1952)
Degree Days
Heating Degree Days 26 22  
Month to date heating degree days 497  
Since 1 July heating degree days 1094  
Cooling Degree Days 0 0  
Month to date cooling degree days 0  
Year to date cooling degree days 189  
Moisture
Dew Point 32°F   
Average Humidity 98    
Maximum Humidity 100    
Minimum Humidity 62    
Precipitation
Precipitation 0.00 in 0.22 in 1.34 in (2009)
Month to date precipitation 5.69  
Year to date precipitation 31.26  
Snow
Snow 0.00 in in 2.20 in (1964)
Month to date snowfall  
Since 1 July snowfall  
Snow Depth in   
Wind
Wind Speed 1 mph   
Max Wind Speed 5 mph   
Max Gust Speed mph   
Visibility 3 miles   
Events Fog   

Key: T is trace of precipitation, MM is missing value
Source: NWS Daily Summary
Time(PST)TemperatureDew PointHumidity Pressure Visibility Wind DirectionWind SpeedGust SpeedPrecipitationEvents Conditions
12:03 AM 32.0°F 32.0°F 100% 30.21 in 1.0 miles SE 1.2 mph - N/A   Mist
12:08 AM 32.0°F 32.0°F 100% 30.21 in 0.5 miles SE 2.3 mph - N/A Fog Light Freezing Fog
12:13 AM 32.0°F 32.0°F 100% 30.21 in 0.5 miles SE 2.3 mph - N/A Fog Fog
12:18 AM 32.0°F 32.0°F 100% 30.21 in 0.5 miles SE 2.3 mph - N/A Fog Light Freezing Fog
12:23 AM 30.2°F 30.2°F 100% 30.20 in 0.5 miles Calm Calm - N/A Fog Light Freezing Fog
12:28 AM 30.2°F 30.2°F 100% 30.20 in 0.5 miles SSE 1.2 mph - N/A Fog Light Freezing Fog
12:43 AM 32.0°F 32.0°F 100% 30.20 in 0.5 miles South 4.6 mph - N/A Fog Light Freezing Fog
12:48 AM 32.0°F 32.0°F 100% 30.21 in 0.8 miles South 2.3 mph - N/A   Overcast
12:58 AM 30.6°F 30.4°F 99% 30.23 in 0.8 miles Calm Calm - N/A   Mostly Cloudy
1:03 AM 32.0°F 32.0°F 100% 30.21 in 0.8 miles Calm Calm - N/A   Mostly Cloudy
1:08 AM 32.0°F 32.0°F 100% 30.21 in 1.0 miles NE 2.3 mph - N/A   Mist
1:13 AM 32.0°F 32.0°F 100% 30.21 in 1.5 miles Calm Calm - N/A   Scattered Clouds
1:23 AM 32.0°F 32.0°F 100% 30.20 in 0.5 miles SSE 2.3 mph - N/A Fog Light Freezing Fog
1:28 AM 32.0°F 32.0°F 100% 30.20 in 0.2 miles Calm Calm - N/A Fog Light Freezing Fog
1:33 AM 32.0°F 32.0°F 100% 30.20 in 0.2 miles Calm Calm - N/A Fog Light Freezing Fog
1:38 AM 32.0°F 30.2°F 93% 30.20 in 0.2 miles Calm Calm - N/A Fog Light Freezing Fog
1:43 AM 30.2°F 30.2°F 100% 30.19 in 0.5 miles SSE 2.3 mph - N/A Fog Light Freezing Fog
1:48 AM 30.2°F 30.2°F 100% 30.19 in 0.5 miles Calm Calm - N/A Fog Light Freezing Fog
1:53 AM 30.2°F 28.4°F 93% 30.19 in 0.5 miles Calm Calm - N/A Fog Light Freezing Fog
1:58 AM 29.7°F 29.3°F 99% 30.21 in 0.5 miles Variable 1.2 mph - N/A Fog Light Freezing Fog
2:03 AM 30.2°F 30.2°F 100% 30.19 in 0.8 miles East 3.5 mph - N/A   Clear
2:08 AM 30.2°F 28.4°F 93% 30.18 in 1.5 miles East 2.3 mph - N/A   Clear
2:13 AM 28.4°F 28.4°F 100% 30.18 in 3.0 miles East 2.3 mph - N/A   Clear
2:54 AM 28.4°F 28.4°F 100% 30.16 in 5.0 miles East 2.3 mph - N/A   Partly Cloudy
2:58 AM 29.3°F 29.1°F 99% 30.17 in 5.0 miles Variable 2.3 mph - N/A   Partly Cloudy
3:08 AM 28.4°F 28.4°F 100% 30.14 in 5.0 miles Variable 3.5 mph - N/A   Mostly Cloudy
3:58 AM 30.2°F 30.0°F 99% 30.17 in 5.0 miles East 1.2 mph - N/A   Mostly Cloudy
4:13 AM 32.0°F 32.0°F 100% 30.15 in 1.5 miles NE 2.3 mph - N/A   Mostly Cloudy
4:14 AM 32.0°F 32.0°F 100% 30.14 in 1.5 miles NE 2.3 mph - N/A   Light Freezing Drizzle
4:19 AM 32.0°F 30.2°F 93% 30.14 in 1.0 miles ENE 1.2 mph - N/A   Light Freezing Drizzle
4:24 AM 32.0°F 32.0°F 100% 30.14 in 0.8 miles Calm Calm - N/A   Light Freezing Drizzle
4:25 AM 32.0°F 32.0°F 100% 30.14 in 0.8 miles Calm Calm - N/A   Mist
4:29 AM 32.0°F 32.0°F 100% 30.14 in 0.5 miles Calm Calm - N/A Fog Light Freezing Drizzle
4:34 AM 32.0°F 32.0°F 100% 30.14 in 0.5 miles South 1.2 mph - N/A Fog Light Freezing Drizzle
4:39 AM 32.0°F 32.0°F 100% 30.14 in 0.5 miles SSW 2.3 mph - N/A Fog Light Freezing Drizzle
4:43 AM 32.0°F 32.0°F 100% 30.14 in 0.5 miles South 2.3 mph - N/A Fog Light Freezing Fog
4:58 AM 30.7°F 30.6°F 99% 30.17 in 0.2 miles Calm Calm - 0.00 in Fog Light Freezing Fog
5:03 AM 32.0°F 32.0°F 100% 30.15 in 0.2 miles SSW 1.2 mph - N/A Fog Light Freezing Fog
5:13 AM 32.0°F 32.0°F 100% 30.15 in 0.2 miles SSW 2.3 mph - N/A Fog Light Freezing Fog
5:28 AM 32.0°F 32.0°F 100% 30.15 in 0.2 miles South 2.3 mph - N/A Fog Light Freezing Fog
5:43 AM 32.0°F 30.2°F 93% 30.15 in 0.2 miles SE 1.2 mph - N/A Fog Light Freezing Fog
5:53 AM 30.2°F 30.2°F 100% 30.15 in 0.2 miles Calm Calm - N/A Fog Light Freezing Fog
5:58 AM 30.0°F 29.7°F 99% 30.17 in 0.2 miles SSE 1.2 mph - N/A Fog Light Freezing Fog
6:08 AM 32.0°F 30.2°F 93% 30.15 in 0.2 miles Calm Calm - N/A Fog Light Freezing Fog
6:18 AM 30.2°F 30.2°F 100% 30.15 in 0.2 miles SSW 2.3 mph - N/A Fog Light Freezing Fog
6:23 AM 30.2°F 30.2°F 100% 30.14 in 0.2 miles South 2.3 mph - N/A Fog Light Freezing Fog
6:38 AM 28.4°F 28.4°F 100% 30.14 in 0.2 miles South 2.3 mph - N/A Fog Light Freezing Fog
6:43 AM 28.4°F 28.4°F 100% 30.14 in 0.5 miles SE 2.3 mph - N/A Fog Light Freezing Fog
6:52 AM 28.4°F 28.4°F 100% 30.14 in 0.5 miles Calm Calm - N/A Fog Light Freezing Fog
6:58 AM 28.9°F 28.8°F 99% 30.16 in 0.5 miles Calm Calm - N/A Fog Light Freezing Fog
7:18 AM 30.2°F 30.2°F 100% 30.14 in 0.2 miles Calm Calm - N/A Fog Light Freezing Fog
7:20 AM 32.0°F 30.2°F 93% 30.14 in 0.2 miles Calm Calm - N/A Fog Light Freezing Fog
7:24 AM 32.0°F 32.0°F 100% 30.14 in 0.2 miles Calm Calm - N/A Fog Light Freezing Fog
7:27 AM 32.0°F 32.0°F 100% 30.14 in 0.2 miles Calm Calm - N/A Fog Light Freezing Fog
7:31 AM 32.0°F 32.0°F 100% 30.14 in 0.2 miles West 1.2 mph - N/A Fog Light Freezing Drizzle
7:49 AM 32.0°F 32.0°F 100% 30.13 in 0.2 miles Calm Calm - N/A Fog Light Freezing Fog
7:51 AM 32.0°F 32.0°F 100% 30.13 in 0.2 miles Calm Calm - N/A Fog Light Freezing Fog
8:07 AM 32.0°F 32.0°F 100% 30.12 in 0.2 miles Calm Calm - N/A Fog Light Freezing Fog
8:27 AM 32.0°F 32.0°F 100% 30.12 in 0.2 miles Calm Calm - N/A Fog Light Freezing Fog
8:32 AM 32.0°F 32.0°F 100% 30.12 in 0.2 miles Calm Calm - N/A Fog Light Freezing Fog
8:37 AM 32.0°F 32.0°F 100% 30.12 in 0.2 miles South 2.3 mph - N/A Fog Light Freezing Fog
8:47 AM 32.0°F 32.0°F 100% 30.12 in 0.5 miles SSE 2.3 mph - N/A Fog Light Freezing Fog
8:49 AM 32.0°F 32.0°F 100% 30.12 in 0.5 miles South 2.3 mph - N/A Fog Light Freezing Fog
8:53 AM 32.0°F 32.0°F 100% 30.12 in 0.5 miles Variable 2.3 mph - N/A Fog Light Freezing Drizzle
8:58 AM 31.1°F 30.9°F 99% 30.14 in 0.5 miles Calm Calm - N/A Fog Light Freezing Fog
8:59 AM 32.0°F 32.0°F 100% 30.11 in 0.5 miles Calm Calm - N/A Fog Light Freezing Drizzle
9:04 AM 32.0°F 32.0°F 100% 30.12 in 1.0 miles East 1.2 mph - N/A   Mist
9:07 AM 32.0°F 32.0°F 100% 30.12 in 1.0 miles Calm Calm - N/A   Mist
9:10 AM 32.0°F 32.0°F 100% 30.11 in 1.2 miles SE 1.2 mph - N/A   Light Freezing Drizzle
9:15 AM 32.0°F 32.0°F 100% 30.12 in 2.0 miles Calm Calm - N/A   Light Freezing Drizzle
9:21 AM 32.0°F 32.0°F 100% 30.12 in 3.0 miles Calm Calm - N/A   Scattered Clouds
9:22 AM 32.0°F 32.0°F 100% 30.12 in 4.0 miles Calm Calm - N/A   Scattered Clouds
9:26 AM 32.0°F 32.0°F 100% 30.12 in 3.0 miles ENE 1.2 mph - N/A   Scattered Clouds
9:29 AM 32.0°F 32.0°F 100% 30.12 in 3.0 miles East 1.2 mph - N/A   Scattered Clouds
9:34 AM 32.0°F 32.0°F 100% 30.11 in 2.5 miles Calm Calm - N/A   Mostly Cloudy
9:39 AM 32.0°F 32.0°F 100% 30.11 in 2.5 miles Calm Calm - N/A   Mostly Cloudy
9:52 AM 32.0°F 32.0°F 100% 30.11 in 3.0 miles Calm Calm - N/A   Overcast
9:56 AM 32.0°F 32.0°F 100% 30.11 in 5.0 miles SE 1.2 mph - N/A   Overcast
9:57 AM 32.0°F 32.0°F 100% 30.11 in 6.0 miles ESE 1.2 mph - N/A   Overcast
9:58 AM 32.7°F 32.5°F 99% 30.13 in 6.0 miles ESE 1.2 mph - N/A   Overcast
10:01 AM 32.0°F 32.0°F 100% 30.12 in 7.0 miles ESE 1.2 mph - N/A   Overcast
10:02 AM 32.0°F 32.0°F 100% 30.12 in 8.0 miles ESE 1.2 mph - N/A   Overcast
10:06 AM 32.0°F 32.0°F 100% 30.12 in 10.0 miles Calm Calm - N/A   Overcast
10:15 AM 32.0°F 32.0°F 100% 30.12 in 10.0 miles SW 1.2 mph - N/A   Overcast
10:58 AM 34.9°F 34.5°F 99% 30.14 in 10.0 miles NNE 2.3 mph - 0.00 in   Mostly Cloudy
11:08 AM 35.6°F 35.6°F 100% 30.11 in 10.0 miles NE 1.2 mph - N/A   Scattered Clouds
11:58 AM 40.6°F 40.5°F 99% 30.11 in 10.0 miles Variable 1.2 mph - N/A   Clear
12:58 PM 45.1°F 45.0°F 99% 30.08 in 10.0 miles Variable 1.2 mph - N/A   Clear
1:58 PM 49.6°F 37.2°F 62% 30.08 in 10.0 miles NE 3.5 mph - N/A   Clear
2:58 PM 47.3°F 36.0°F 65% 30.07 in 10.0 miles ENE 3.5 mph - N/A   Clear
3:58 PM 43.9°F 35.1°F 71% 30.07 in 10.0 miles NE 2.3 mph - N/A   Clear
4:58 PM 39.0°F 36.1°F 89% 30.06 in 10.0 miles South 2.3 mph - N/A   Clear
5:58 PM 34.0°F 33.6°F 99% 30.06 in 10.0 miles SSW 2.3 mph - N/A   Clear
6:58 PM 34.7°F 34.3°F 99% 30.06 in 10.0 miles South 4.6 mph - N/A   Clear
7:58 PM 32.9°F 32.7°F 99% 30.07 in 10.0 miles SSE 2.3 mph - N/A   Clear
8:58 PM 31.1°F 30.9°F 99% 30.07 in 10.0 miles South 3.5 mph - N/A   Clear
9:58 PM 30.6°F 30.2°F 99% 30.08 in 10.0 miles Calm Calm - N/A   Clear
10:58 PM 29.7°F 29.5°F 99% 30.09 in 10.0 miles SE 2.3 mph - N/A   Overcast
11:58 PM 30.6°F 30.4°F 99% 30.10 in 10.0 miles SSW 2.3 mph - N/A   Overcast
Moon Phase
Nov. 26 Nov. 28 Dec. 06 Dec. 13 Dec. 20
Sunrise:07:29 AM (PST) Moon Rise:03:23 PM (PST)11/26
Sunset:04:24 PM (PST) Moon Set:05:41 AM (PST)11/26

Copyright © 2014 The Weather Underground, Inc.